Whiteman AFB, MO

1:40 PM CDT on September 20, 2017 (GMT -0500)
Whiteman Air Force Base

Weather History for KSZL - February, 2012

Change the Weather History Date:

Tuesday, February 7, 2012

  Actual Average Record
Temperature  
Mean Temperature 36 °F -  
Max Temperature 45 °F 42 °F 69 °F (2009)
Min Temperature 28 °F 24 °F -9 °F (2014)
Degree Days  
Heating Degree Days 28    
Moisture  
Dew Point 34 °F    
Average Humidity 93    
Maximum Humidity 100    
Minimum Humidity 70    
Precipitation  
Precipitation 0.00 in - - ()
Sea Level Pressure  
Sea Level Pressure 30.31 in    
Wind  
Wind Speed 6 mph (NNW)    
Max Wind Speed 16 mph    
Max Gust Speed -    
Visibility 8 miles    
Events Rain    
Averages and records for this station are not official NWS values.
T = Trace of Precipitation, MM = Missing Value Source: NWS Daily Summary

Daily Weather History Graph

Daily Weather History Graph

Search for Another Location

Airport or City:

Trip Planner

Search our weather history database for the weather conditions in past years. The results will help you decide how hot, cold, wet, or windy it might be!

Date:

Astronomy

Feb. 07, 2012 Rise Set
Actual Time 7:14 AM CST 5:42 PM CST
Civil Twilight 6:47 AM CST 6:10 PM CST
Nautical Twilight 6:15 AM CST 6:41 PM CST
Astronomical Twilight 5:44 AM CST 7:12 PM CST
Moon 5:53 PM CST (2/7) 6:44 AM CST (2/7)
Length of Visible Light 11h 22m
Length of Day
10h 27m
Full, 100% of the Moon is Illuminated
Feb 7
Full
Feb 7
Full
Feb 14
Last Quarter
Feb 21
New
Feb 29
First Quarter

Hourly Weather History & Observations

Time (CST) Temp. Windchill Dew Point Humidity Pressure Visibility Wind Dir Wind Speed Gust Speed Precip Events Conditions
12:55 AM 32.0 °F - 31.6 °F 99% 30.24 in 10.0 mi Calm Calm - N/A   Scattered Clouds
1:55 AM 31.3 °F 27.9 °F 30.9 °F 99% 30.24 in 10.0 mi SSW 3.5 mph - N/A   Scattered Clouds
2:55 AM 28.6 °F 24.8 °F 28.4 °F 99% 30.24 in 10.0 mi SSW 3.5 mph - N/A   Mostly Cloudy
3:55 AM 30.2 °F 26.7 °F 30.0 °F 99% 30.23 in 10.0 mi SW 3.5 mph - N/A   Mostly Cloudy
4:55 AM 31.6 °F 28.3 °F 31.3 °F 99% 30.23 in 10.0 mi SSW 3.5 mph - N/A   Mostly Cloudy
5:55 AM 33.1 °F 30.0 °F 32.7 °F 99% 30.22 in 10.0 mi SSW 3.5 mph - N/A   Mostly Cloudy
6:55 AM 33.3 °F 30.2 °F 32.5 °F 97% 30.24 in 10.0 mi SSW 3.5 mph - N/A   Mostly Cloudy
7:55 AM 34.0 °F 29.8 °F 33.8 °F 99% 30.26 in 10.0 mi SW 4.6 mph - N/A   Mostly Cloudy
8:55 AM 37.4 °F - 35.8 °F 94% 30.27 in 10.0 mi Calm Calm - N/A   Overcast
9:55 AM 39.7 °F 36.5 °F 33.3 °F 78% 30.29 in 10.0 mi West 4.6 mph - N/A   Overcast
10:55 AM 41.9 °F 38.2 °F 33.1 °F 71% 30.30 in 10.0 mi North 5.8 mph - N/A   Mostly Cloudy
11:55 AM 43.0 °F 37.7 °F 36.1 °F 77% 30.30 in 10.0 mi North 9.2 mph - N/A   Mostly Cloudy
12:55 PM 43.9 °F 37.5 °F 34.7 °F 70% 30.30 in 10.0 mi NNW 12.7 mph - N/A   Partly Cloudy
1:55 PM 45.1 °F 38.1 °F 36.7 °F 72% 30.29 in 10.0 mi North 16.1 mph - N/A   Mostly Cloudy
2:54 PM 42.8 °F 35.8 °F 39.2 °F 87% 30.26 in 5.0 mi North 13.8 mph - N/A Rain Light Rain
2:55 PM 42.6 °F 35.9 °F 39.2 °F 88% 30.30 in 5.0 mi North 12.7 mph - N/A Rain Light Rain
3:13 PM 41.0 °F 34.7 °F 41.0 °F 100% 30.30 in 3.0 mi North 10.4 mph - N/A Rain Light Rain
3:55 PM 39.2 °F 31.6 °F 39.2 °F 100% 30.31 in 5.0 mi North 12.7 mph - 0.00 in Rain Light Rain
4:55 PM 36.7 °F 29.9 °F 36.7 °F 100% 30.32 in 3.0 mi North 9.2 mph - 0.00 in   Light Drizzle
5:55 PM 36.1 °F 28.7 °F 36.1 °F 100% 30.34 in 5.0 mi North 10.4 mph - 0.00 in   Overcast
6:55 PM 35.4 °F 26.8 °F 35.4 °F 100% 30.36 in 6.0 mi NNE 12.7 mph - N/A   Overcast
7:55 PM 34.7 °F 26.9 °F 34.5 °F 99% 30.37 in 4.0 mi NNE 10.4 mph - N/A   Overcast
8:55 PM 34.2 °F 26.2 °F 34.0 °F 99% 30.40 in 8.0 mi NNE 10.4 mph - N/A   Overcast
9:55 PM 33.4 °F 25.9 °F 33.3 °F 99% 30.41 in 10.0 mi NNE 9.2 mph - N/A   Overcast
10:22 PM 33.8 °F 26.4 °F 33.8 °F 100% 30.42 in 10.0 mi NNE 9.2 mph - N/A   Overcast
10:55 PM 32.9 °F 25.9 °F 32.7 °F 99% 30.42 in 10.0 mi North 8.1 mph - N/A   Overcast
11:55 PM 32.7 °F 25.7 °F 32.5 °F 99% 30.43 in 10.0 mi North 8.1 mph - N/A   Overcast